This is the latest recevied weather packets stored in our database for station/object DB0RV-13. If no packets are shown the sender has not sent any weather packets the latest 10 day(s).
| Time | Temp. | Humidity | Pressure | Rain* | Wind** | Luminosity | Snow |
|---|---|---|---|---|---|---|---|
| 1777715703 | 18.33° C | 48% | 1021.3 hPa | - | - | - | - |
| 1777715402 | 18.33° C | 47% | 1021.4 hPa | - | - | - | - |
| 1777715102 | 18.33° C | 47% | 1021.4 hPa | - | - | - | - |
| 1777714801 | 17.78° C | 47% | 1021.4 hPa | - | - | - | - |
| 1777714503 | 17.78° C | 48% | 1021.4 hPa | - | - | - | - |
| 1777714201 | 17.78° C | 51% | 1021.4 hPa | - | - | - | - |
| 1777713902 | 17.22° C | 49% | 1021.6 hPa | - | - | - | - |
| 1777713601 | 17.22° C | 49% | 1021.5 hPa | - | - | - | - |
| 1777713302 | 17.78° C | 49% | 1021.7 hPa | - | - | - | - |
| 1777713002 | 17.22° C | 48% | 1021.7 hPa | - | - | - | - |
| 1777712702 | 16.67° C | 50% | 1021.7 hPa | - | - | - | - |
| 1777712403 | 16.67° C | 48% | 1021.7 hPa | - | - | - | - |
| 1777712101 | 16.11° C | 49% | 1021.7 hPa | - | - | - | - |
| 1777711802 | 16.11° C | 50% | 1021.8 hPa | - | - | - | - |
| 1777711501 | 16.11° C | 49% | 1021.9 hPa | - | - | - | - |
| 1777711202 | 16.11° C | 50% | 1021.8 hPa | - | - | - | - |
| 1777710901 | 15.56° C | 48% | 1021.9 hPa | - | - | - | - |
| 1777710602 | 15.56° C | 52% | 1021.8 hPa | - | - | - | - |
| 1777710302 | 16.11° C | 50% | 1021.8 hPa | - | - | - | - |
| 1777710002 | 15.56° C | 51% | 1021.9 hPa | - | - | - | - |
| 1777709702 | 16.11° C | 49% | 1021.9 hPa | - | - | - | - |
| 1777709401 | 15.56° C | 51% | 1021.9 hPa | - | - | - | - |
| 1777709102 | 15° C | 50% | 1022.1 hPa | - | - | - | - |
| 1777708801 | 15° C | 52% | 1022 hPa | - | - | - | - |
| 1777708504 | 13.89° C | 54% | 1022.1 hPa | - | - | - | - |
* Rain since midnight (hover to see other rain measurements)
** Current wind speed in m/s (hover to see current wind gust speed)